Find Tenkoh-2

NORAD ID: 68261 Int'l Des: 2025-241 Owner: NIHON Country: J operational
LEOCIRCULAR

現在のビュー

3D地球を読み込み中...

About Tenkoh-2

Tenkoh-2 (NORAD 68261) is a satellite launched Oct 26, 2025 by NIHON of J. It operates in LEO, CIRCULAR orbit with a mass of 10.00 kg.

次回通過

Passes for default location (London). Set your location on the main map for personalized predictions.

高度履歴

Loading altitude history...

軌道要素

1 68261U 25241B 26166.70419506 .00005304 00000-0 23027-3 0 9999
2 68261 51.6697 326.6857 0006067 137.6687 222.4761 15.23889978 14686
Epoch: Jun 15, 2026 • Age: 75 hours

現在のステータス

高度 513.5 km
速度 7.61 km/s
衛星直下点 -47.86°S, 42.28°E
打ち上げ日 Oct 26, 2025
運用期間 0.6 years
タイプ other

技術仕様

分類 Payload
質量 10.00 kg
乾燥質量 10.00 kg
総質量 10.00 kg
長さ 0.30 m
直径 0.20 m
スパン 0.30 m
形状 Box
製造者 NIHON
バスタイプ Cubesat 6U
フェーズステータス In Orbit
所有者/国 NIHON/J

Most Searched